CAPE
0 0 7 0 0 0 0 0 0 0 0 0 0 0 0 0 1 1 1 0 0 1 1 0 0 1 0 2 0 151 20 0 0 0 0 0 0 0 0 0 0 0 0 0 93 1 0
0 0 0 2 0 0 0 0 0 0 0 0 0 0 0 0 1 0 1 0 0 1 1 0 0 0 0 0 0 63 33 0 0 0 0 0 0 0 0 0 0 0 0 0 5 32 18
3 0 0 0 8 0 0 0 0 0 0 0 0 0 0 0 0 0 0 0 0 1 0 0 1 0 0 0 0 169 16 10 0 0 0 0 0 0 5 0 0 0 0 0 0 22 77
5 0 1 0 2 5 0 0 0 0 0 0 0 0 0 0 0 0 0 0 0 0 0 0 0 0 0 0 0 4 142 61 27 0 0 0 0 0 0 0 0 0 0 0 0 0 65
0 1 0 0 0 1 2 0 0 0 0 0 0 0 0 0 0 0 0 0 0 0 0 0 0 0 27 0 0 3 38 32 40 7 0 0 0 0 0 0 0 0 0 0 0 0 2
1 3 4 1 0 1 3 0 0 0 0 0 0 0 0 0 0 0 0 0 0 0 0 0 0 13 31 0 4 2 8 14 85 17 12 2 7 5 0 0 0 0 0 0 0 0 11
5 6 2 5 0 0 4 0 0 0 0 0 0 0 0 0 0 0 0 0 0 0 0 0 0 6 0 6 0 1 0 1 70 72 128 50 10 0 0 0 0 0 0 0 1 0 0
0 3 5 0 0 0 1 0 0 0 0 0 0 0 0 0 0 0 0 0 0 4 18 0 0 0 3 1 32 1 0 13 74 71 10 2 0 0 0 0 0 0 0 3 0 0 1
7 2 0 0 0 0 0 4 0 0 0 0 0 0 0 0 1 0 0 0 0 0 154 0 0 0 0 0 2 10 3 23 36 0 0 1 1 0 0 0 0 0 0 1 4 0 1
12 11 5 7 0 0 0 0 0 0 0 0 0 0 0 0 0 0 0 0 0 0 65 0 0 0 0 0 0 0 0 34 14 0 0 0 17 0 0 0 0 1 15 29 49 7 0
15 16 13 2 0 0 0 0 1 0 0 0 0 0 0 0 0 0 0 0 15 212 6 0 0 0 0 0 1 0 0 2 10 0 0 6 4 0 1 38 13 11 21 69 82 19 0
24 16 16 18 12 0 0 0 0 0 0 0 0 0 0 1 0 0 0 277 224 105 13 0 0 0 0 0 0 1 0 0 22 0 0 8 60 92 51 45 51 43 70 88 91 52 69
28 26 25 26 13 0 0 0 0 0 0 0 0 0 0 0 0 0 50 154 3 5 0 0 0 0 0 0 0 0 0 0 0 14 0 28 72 69 73 82 78 76 96 44 7 45 23
15 34 36 28 17 10 0 0 0 1 0 0 0 0 0 0 0 0 226 27 4 0 3 0 0 0 0 0 0 0 0 0 0 20 2 66 75 53 56 115 127 67 43 51 22 16 11
5 14 39 27 13 11 3 0 0 2 0 0 0 2 1 0 0 0 112 22 0 0 0 0 0 0 0 0 0 0 0 0 0 0 0 57 15 12 17 50 16 35 2 28 32 3 0
4 23 17 28 23 22 17 0 0 2 0 0 0 5 0 0 0 5 37 2 0 4 0 0 0 0 0 0 0 0 0 26 34 38 116 75 61 5 0 4 4 11 4 0 0 0 0
8 16 19 33 21 48 28 0 0 3 0 0 2 4 0 0 0 18 11 0 2 0 0 0 0 0 1 0 0 0 10 49 35 51 108 49 8 52 0 0 16 2 0 0 2 0 0
23 2 0 31 6 20 59 6 0 4 0 0 17 7 2 49 0 6 2 0 3 0 0 0 0 0 0 0 0 0 9 10 13 51 15 16 25 35 23 0 0 0 0 0 0 0 0
1 0 20 28 7 9 30 0 19 7 0 0 32 45 204 29 0 9 1 0 14 6 0 0 0 0 0 0 0 0 0 0 0 22 0 6 0 0 6 0 0 0 0 0 0 0 0
9 1 21 38 9 0 21 12 4 11 0 1 44 30 63 73 18 25 1 2 0 6 0 0 0 15 0 0 11 8 0 0 0 0 0 0 0 0 3 33 10 0 0 0 0 0 0
1 10 26 16 8 7 16 3 1 1 0 2 66 13 1 5 31 55 13 0 0 0 0 14 5 3 9 39 60 62 37 0 0 0 0 0 0 0 0 0 0 0 0 0 0 0 0
9 20 9 12 0 4 0 0 3 1 0 4 45 37 24 23 33 29 23 0 0 6 0 9 0 0 5 33 37 42 91 5 0 0 0 0 0 0 0 0 0 0 0 0 0 0 0
9 14 2 3 4 7 0 3 1 8 0 6 116 103 61 58 68 4 12 0 3 61 83 63 0 16 14 139 210 131 68 29 16 34 10 0 0 0 0 0 0 0 0 0 0 0 0
6 13 0 1 9 0 0 0 2 1 0 35 146 91 89 34 59 0 8 8 18 78 31 68 155 100 59 0 0 0 0 0 0 0 4 0 0 0 0 0 0 0 0 0 0 0 0
1 3 0 10 2 1 0 0 4 1 0 73 302 153 120 14 27 11 5 0 16 106 109 57 5 32 0 3 0 0 0 0 0 0 0 0 0 0 0 0 0 0 0 0 0 0 0
1 0 0 10 3 1 8 6 20 0 0 2 404 397 126 39 0 2 1 11 33 90 87 0 0 0 0 62 42 0 0 0 0 0 0 0 0 0 0 0 0 0 0 0 0 0 0
1 8 0 6 0 6 0 2 0 0 0 0 638 291 130 18 2 0 0 0 13 6 24 0 0 0 0 15 1 55 5 0 0 0 0 0 0 0 0 0 0 0 0 0 0 0 0
10 1 1 0 0 4 4 0 0 0 0 0 762 538 483 227 99 83 8 0 28 18 150 2 0 0 0 0 61 57 10 0 0 0 0 0 0 0 0 0 0 0 0 0 0 0 0
0 0 15 9 1 1 1 1 0 0 0 0 707 411 780 377 194 149 41 0 23 213 155 0 27 17 25 16 130 104 0 0 0 0 0 0 0 0 0 0 0 0 0 0 0 0 0
CIN
-0 -0 -7 -0 -0 -0 -0 -0 -0 -0 -0 -0 -0 -0 -0 -0 -0 -0 -0 -0 -0 -0 -0 -0 -0 -0 -0 -136 -0 -207 -437 -0 -0 -0 -0 -0 -0 -0 -0 -0 -0 -0 -0 -0 -2 -1 -0
-0 -0 -0 -4 -0 -0 -0 -0 -0 -0 -0 -0 -0 -0 -0 -0 -0 -0 -0 -0 -0 -0 -1 -4 -0 -0 -0 -0 -0 -175 -269 -0 -0 -0 -0 -0 -0 -0 -0 -0 -0 -0 -0 -0 -1 -8 -2
-1 -0 -0 -0 -20 -0 -0 -0 -0 -0 -0 -0 -0 -0 -0 -0 -0 -0 -0 -0 -0 -1 -0 -0 -0 -0 -0 -0 -0 -103 -247 -151 -0 -0 -0 -0 -0 -0 -84 -41 -0 -0 -0 -0 -0 -6 -3
-0 -0 -0 -0 -0 -24 -0 -0 -0 -0 -0 -0 -0 -0 -0 -0 -0 -0 -0 -0 -0 -0 -0 -0 -0 -0 -0 -0 -0 -197 -93 -131 -152 -9 -0 -105 -0 -0 -0 -0 -0 -0 -0 -0 -0 -0 -5
-0 -1 -0 -0 -0 -0 -18 -0 -0 -0 -0 -0 -0 -0 -0 -0 -0 -0 -0 -0 -0 -0 -0 -0 -0 -0 -128 -0 -0 -143 -112 -106 -128 -162 -0 -0 -0 -0 -0 -0 -0 -0 -0 -0 -0 -0 -5
-1 -0 -2 -2 -0 -0 -31 -0 -0 -0 -0 -0 -0 -0 -0 -0 -0 -0 -0 -0 -0 -0 -0 -0 -0 -85 -100 -0 -35 -39 -114 -129 -70 -106 -135 -17 -50 -28 -0 -0 -4 -0 -0 -0 -0 -0 -5
-0 -0 -1 -0 -0 -0 -27 -0 -0 -0 -0 -0 -0 -0 -0 -0 -0 -0 -0 -0 -0 -0 -0 -0 -0 -92 -113 -109 -0 -38 -0 -14 -44 -58 -10 -45 -10 -0 -0 -0 -0 -0 -0 -6 -3 -0 -0
-0 -0 -0 -0 -0 -0 -0 -6 -0 -0 -0 -0 -0 -0 -0 -0 -0 -0 -0 -0 -0 -109 -37 -0 -0 -0 -183 -142 -92 -89 -0 -40 -14 -16 -14 -11 -0 -0 -0 -0 -0 -0 -0 -27 -0 -0 -0
-0 -1 -0 -0 -0 -0 -0 -0 -0 -0 -0 -0 -0 -0 -0 -0 -0 -0 -0 -0 -0 -0 -25 -0 -0 -0 -0 -0 -45 -29 -62 -4 -11 -15 -0 -9 -10 -9 -0 -0 -0 -0 -5 -5 -5 -0 -3
-0 -0 -1 -0 -0 -0 -0 -0 -0 -0 -0 -0 -0 -0 -0 -0 -0 -0 -0 -0 -0 -0 -16 -0 -0 -0 -0 -0 -0 -0 -0 -5 -5 -0 -0 -5 -16 -0 -0 -0 -9 -11 -21 -9 -6 -19 -0
-0 -0 -0 -4 -0 -0 -0 -0 -0 -0 -0 -0 -0 -0 -0 -0 -0 -0 -0 -0 -16 -59 -0 -0 -0 -0 -0 -0 -1 -0 -0 -3 -7 -5 -0 -83 -3 -1 -26 -10 -18 -1 -39 -12 -2 -3 -0
-0 -0 -0 -0 -3 -0 -0 -0 -0 -0 -0 -0 -0 -0 -0 -0 -0 -0 -0 -38 -34 -8 -2 -0 -0 -0 -0 -0 -0 -0 -0 -0 -16 -0 -0 -5 -25 -10 -46 -41 -31 -46 -24 -15 -4 -7 -4
-0 -0 -0 -0 -2 -0 -0 -0 -0 -0 -0 -0 -0 -0 -0 -0 -0 -0 -37 -26 -3 -3 -1 -0 -0 -0 -0 -0 -0 -0 -0 -0 -0 -5 -0 -2 -6 -33 -26 -13 -31 -17 -3 -3 -20 -9 -3
-0 -0 -0 -0 -1 -5 -0 -0 -0 -1 -0 -0 -0 -0 -0 -0 -0 -0 -16 -3 -1 -0 -0 -0 -0 -0 -0 -0 -0 -0 -0 -0 -0 -5 -19 -6 -13 -13 -33 -10 -2 -8 -3 -5 -3 -2 -6
-0 -0 -0 -0 -5 -1 -7 -0 -0 -0 -0 -0 -0 -0 -0 -0 -0 -0 -2 -2 -0 -1 -0 -0 -0 -0 -0 -0 -0 -0 -0 -0 -0 -0 -4 -9 -68 -77 -58 -33 -27 -1 -21 -8 -10 -4 -0
-3 -0 -0 -0 -3 -3 -3 -0 -0 -0 -0 -0 -0 -0 -0 -0 -0 -5 -2 -1 -1 -4 -0 -0 -0 -0 -0 -0 -0 -0 -0 -6 -10 -37 -22 -8 -6 -37 -0 -59 -42 -20 -5 -0 -0 -0 -0
-2 -1 -0 -0 -5 -3 -12 -0 -0 -0 -0 -0 -1 -1 -0 -0 -0 -5 -2 -0 -1 -0 -0 -0 -0 -0 -0 -0 -0 -0 -7 -22 -32 -30 -18 -3 -6 -23 -0 -0 -3 -3 -0 -0 -1 -0 -0
-1 -0 -0 -0 -9 -5 -0 -9 -0 -0 -0 -0 -0 -0 -3 -48 -0 -2 -2 -0 -4 -0 -0 -0 -0 -0 -0 -0 -0 -0 -1 -3 -41 -21 -6 -3 -2 -2 -11 -0 -0 -0 -0 -0 -0 -0 -0
-5 -0 -0 -6 -14 -10 -6 -0 -0 -1 -0 -0 -0 -4 -37 -52 -1 -2 -1 -0 -1 -3 -0 -0 -0 -0 -0 -0 -0 -0 -0 -0 -0 -36 -0 -16 -0 -0 -1 -0 -0 -0 -0 -0 -0 -0 -0
-0 -0 -0 -3 -13 -15 -5 -4 -1 -0 -0 -0 -2 -1 -0 -0 -3 -3 -1 -4 -0 -1 -1 -0 -0 -32 -2 -0 -10 -1 -0 -0 -0 -0 -0 -0 -0 -1 -2 -3 -8 -0 -0 -0 -0 -0 -0
-0 -0 -0 -5 -31 -24 -9 -18 -0 -0 -0 -15 -6 -1 -1 -1 -1 -2 -4 -0 -0 -0 -0 -61 -64 -12 -25 -14 -6 -2 -6 -0 -0 -0 -0 -0 -0 -0 -0 -0 -0 -0 -0 -0 -0 -0 -0
-0 -1 -5 -10 -0 -11 -0 -0 -0 -0 -0 -18 -3 -2 -1 -2 -1 -4 -6 -0 -0 -2 -0 -78 -0 -0 -4 -5 -2 -7 -6 -19 -0 -0 -0 -0 -0 -0 -0 -0 -0 -0 -0 -0 -0 -0 -0
-2 -4 -4 -7 -31 -41 -0 -4 -0 -21 -0 -0 -32 -16 -3 -5 -2 -3 -3 -0 -5 -4 -27 -9 -0 -4 -6 -13 -27 -34 -30 -21 -20 -29 -28 -0 -0 -0 -0 -0 -0 -0 -0 -0 -0 -0 -0
-4 -5 -0 -11 -5 -0 -0 -0 -0 -0 -0 -16 -14 -1 -0 -6 -0 -0 -4 -3 -8 -3 -14 -32 -2 -1 -40 -0 -0 -0 -0 -0 -0 -0 -15 -0 -0 -0 -0 -0 -0 -0 -0 -0 -0 -0 -0
-0 -4 -0 -36 -0 -0 -0 -2 -0 -0 -0 -55 -44 -5 -0 -12 -3 -3 -4 -0 -5 -8 -7 -43 -22 -127 -0 -75 -0 -0 -0 -0 -0 -0 -0 -0 -0 -0 -0 -0 -0 -0 -0 -0 -0 -0 -0
-50 -1 -0 -0 -2 -0 -3 -0 -0 -0 -0 -0 -49 -67 -0 -11 -0 -2 -4 -5 -4 -5 -55 -0 -0 -0 -0 -63 -51 -0 -0 -0 -0 -0 -0 -0 -0 -0 -0 -0 -0 -0 -0 -0 -0 -0 -0
-0 -1 -0 -2 -0 -0 -1 -0 -0 -0 -0 -0 -11 -164 -22 -5 -1 -0 -0 -0 -3 -8 -16 -0 -0 -0 -0 -114 -32 -14 -34 -0 -0 -0 -0 -0 -0 -0 -0 -0 -0 -0 -0 -0 -0 -0 -0
-0 -8 -1 -0 -0 -4 -0 -0 -0 -0 -0 -0 -5 -149 -17 -29 -46 -47 -5 -0 -2 -15 -26 -48 -0 -0 -0 -0 -29 -29 -69 -0 -0 -0 -0 -0 -0 -0 -0 -0 -0 -0 -0 -0 -0 -0 -0
-0 -0 -0 -0 -0 -0 -0 -0 -0 -0 -0 -0 -3 -142 -46 -16 -77 -122 -206 -0 -115 -38 -10 -0 -22 -28 -82 -52 -27 -36 -0 -0 -0 -0 -0 -0 -0 -0 -0 -0 -0 -0 -0 -0 -0 -0 -0
Wind_Speed
36 35 31 28 27 25 25 25 24 23 22 23 24 23 24 26 26 24 23 19 18 16 20 20 23 23 20 12 6 17 18 10 9 9 8 21 22 22 22 21 15 20 14 15 9 11 7
39 37 36 31 29 28 27 26 25 24 23 23 25 24 24 26 25 23 21 18 16 15 16 18 21 21 16 11 14 14 15 11 8 14 23 23 20 22 22 20 19 11 17 6 9 10 2
39 39 37 37 31 29 28 28 27 25 23 24 26 26 25 24 23 21 19 15 13 12 11 13 20 19 20 11 14 12 12 10 7 13 14 20 23 19 19 19 22 19 7 5 15 12 6
38 38 38 37 36 31 29 28 27 26 25 25 26 26 26 25 22 19 15 12 13 12 12 14 15 17 13 11 8 7 8 18 11 4 24 17 23 25 23 17 20 26 5 2 4 3 24
39 39 38 36 37 32 30 28 27 27 25 27 27 25 25 24 22 18 13 12 12 11 12 12 11 11 10 12 12 7 8 15 9 9 7 20 23 26 22 27 28 25 3 11 5 26 22
42 40 38 36 37 35 31 29 27 25 25 27 27 26 25 23 20 15 12 10 11 10 11 9 8 10 5 7 13 13 9 8 10 7 17 23 22 25 27 30 28 11 14 23 7 4 3
43 42 41 39 37 36 31 29 28 26 27 27 27 26 24 23 17 11 10 11 10 11 9 13 12 9 9 16 12 13 7 10 12 23 24 26 28 29 30 23 21 19 19 16 6 8 5
44 43 42 43 42 39 37 30 29 28 27 26 28 25 23 19 13 7 7 6 15 15 9 15 18 16 22 19 11 7 8 5 23 21 22 25 28 17 23 25 25 22 20 8 10 7 16
46 43 43 42 42 40 39 34 31 29 27 26 25 24 22 15 10 9 3 5 15 20 8 8 12 16 6 6 3 2 9 13 23 20 19 17 26 14 19 25 24 21 19 11 13 5 18
47 45 41 40 40 39 37 36 30 28 26 25 24 22 15 9 13 8 5 3 3 16 8 7 7 5 6 9 7 14 13 17 19 28 18 19 14 12 14 24 20 20 17 12 12 7 11
49 44 42 40 40 39 36 35 31 26 26 25 24 20 11 5 19 6 11 11 10 8 13 8 8 7 5 3 12 8 14 20 24 30 26 14 20 17 19 15 21 13 12 13 12 27 5
52 49 46 41 39 39 37 35 31 25 23 24 23 21 13 16 19 15 12 12 7 5 10 7 7 10 11 12 14 12 15 25 16 20 27 23 17 18 14 15 18 14 13 17 22 27 25
52 50 47 44 41 38 38 36 32 28 25 24 23 20 15 13 15 11 11 4 4 2 9 6 7 8 9 6 4 24 25 25 29 26 20 20 15 13 14 13 15 18 20 22 14 19 25
51 51 49 45 43 40 38 38 35 29 26 25 23 21 25 23 21 15 6 3 2 2 4 9 6 5 7 7 19 20 24 34 35 30 23 15 19 13 16 22 20 21 27 27 22 25 25
54 51 51 48 44 42 40 39 37 31 25 24 21 24 28 24 22 17 9 13 6 4 5 5 2 3 2 4 20 23 26 31 26 32 30 20 17 12 18 22 23 22 26 23 24 24 28
54 51 51 48 45 44 42 41 39 33 26 24 26 26 31 21 16 17 11 16 12 2 4 1 3 2 4 12 16 15 13 23 18 24 26 17 18 19 18 21 23 26 17 21 22 22 22
53 51 51 50 46 45 43 44 40 36 29 26 29 31 25 18 16 21 21 16 10 1 6 14 12 11 31 29 31 29 28 14 23 21 25 24 25 19 20 26 25 16 26 22 21 20 21
48 50 55 52 48 46 45 45 43 37 32 30 32 36 19 21 24 21 19 17 7 4 17 21 23 24 30 24 30 31 30 25 13 18 22 20 24 26 29 18 23 25 24 20 23 21 20
44 45 50 49 48 47 47 46 46 41 38 34 39 28 23 26 32 20 17 15 8 6 16 21 23 24 26 24 25 29 30 16 16 19 24 18 27 29 26 22 20 24 23 23 22 19 20
39 48 47 45 46 48 48 49 49 46 43 39 35 34 27 32 33 22 18 17 12 23 25 23 23 18 19 19 19 17 17 16 15 16 19 18 29 26 29 25 20 19 26 23 3 19 24
39 45 45 48 46 46 49 50 51 49 49 43 43 41 33 35 36 29 20 16 16 13 26 24 22 24 18 17 15 18 11 14 14 15 15 19 26 29 33 26 26 26 26 27 26 17 28
34 34 38 45 50 49 51 53 51 52 54 45 40 38 31 28 33 29 23 19 20 18 22 23 24 22 19 18 15 15 8 11 13 12 16 19 25 24 27 27 28 31 31 32 33 18 16
34 36 39 43 47 50 51 53 50 53 54 44 37 34 32 30 35 31 26 20 19 20 23 25 24 15 15 14 14 16 13 14 14 14 14 18 20 20 26 23 25 31 32 27 9 7 16
36 34 38 43 47 50 51 53 53 55 60 44 35 30 32 33 36 31 26 23 26 23 21 18 14 14 12 5 8 10 10 11 13 16 17 18 19 20 23 21 27 24 20 21 22 24 23
35 34 39 45 47 51 50 57 56 57 64 43 31 29 32 32 33 33 28 29 31 22 19 16 16 14 1 9 14 15 17 19 19 18 18 19 16 19 20 22 28 29 17 20 19 20 23
38 41 43 48 53 52 55 58 56 58 64 46 31 27 28 31 32 35 33 33 28 25 21 18 12 10 14 14 15 18 19 20 16 16 17 16 17 18 18 22 24 18 17 17 19 23 22
43 44 45 50 53 54 55 55 55 58 56 46 28 27 24 30 28 30 36 35 31 28 23 19 18 18 19 16 17 17 19 18 16 16 17 16 17 17 19 22 23 20 19 18 22 22 26
44 45 46 53 51 53 54 55 54 54 51 42 27 24 25 23 24 27 30 38 31 32 26 19 17 20 20 19 20 20 20 19 19 17 15 14 14 17 17 21 25 15 16 21 22 25 28
44 47 47 53 52 51 53 53 52 49 47 40 27 22 15 21 23 21 22 22 28 28 28 22 24 18 19 18 20 19 20 19 20 20 17 19 18 20 17 21 17 14 22 22 24 27 28
Wind_Direction
286 288 282 284 287 291 296 299 304 308 312 316 319 324 329 331 338 345 349 355 356 356 349 346 323 312 309 347 51 0 359 55 88 103 120 254 249 249 253 254 260 260 289 304 351 25 55
281 283 284 280 282 285 290 294 298 304 307 312 313 320 327 331 337 346 351 358 0 359 359 347 323 310 319 339 351 4 13 67 79 129 226 233 250 250 256 251 247 285 266 338 55 62 337
282 279 281 282 278 281 284 289 293 298 303 307 308 314 322 330 338 346 354 3 6 14 25 10 313 311 290 154 354 20 11 41 75 130 284 257 243 254 262 255 243 254 286 45 114 104 23
284 281 280 280 279 277 280 284 288 293 298 300 304 310 316 325 336 346 359 9 13 19 19 1 335 313 319 332 11 21 37 287 306 59 211 284 244 230 240 257 238 191 32 86 80 18 183
283 283 280 279 278 275 275 280 284 288 293 294 299 305 313 322 333 346 4 14 18 34 18 11 335 351 0 326 320 256 103 299 341 321 342 252 222 212 230 207 215 191 355 287 346 176 164
279 280 282 278 278 275 272 275 280 284 289 291 293 299 308 319 331 350 12 26 34 61 32 56 121 33 351 37 283 299 341 9 329 14 253 220 226 211 208 195 212 264 274 206 333 37 125
277 277 276 276 276 276 270 271 274 278 282 285 288 294 305 314 331 357 22 33 48 55 114 138 81 29 18 297 292 289 8 311 288 177 190 204 204 200 199 223 240 237 251 264 7 345 50
273 273 273 272 270 271 272 267 269 272 277 280 281 289 300 314 331 357 9 43 12 3 52 166 173 171 214 276 286 316 327 18 210 212 225 211 205 249 238 226 218 224 256 307 335 7 274
271 270 270 271 270 269 269 265 264 267 271 276 277 284 295 313 331 335 5 121 352 322 72 100 134 159 130 34 99 94 300 295 239 228 238 240 233 267 248 230 229 252 270 302 301 13 166
268 267 266 267 268 268 267 266 260 262 265 270 272 278 291 312 315 327 341 11 19 319 49 88 99 88 354 328 330 285 279 278 251 238 251 258 283 264 263 230 258 266 285 312 309 103 148
264 263 263 263 264 265 263 264 257 257 260 263 265 269 272 236 297 309 337 323 345 9 358 92 99 26 36 30 321 282 274 261 239 227 231 293 240 251 252 280 258 302 320 308 299 217 353
260 259 259 259 259 259 258 259 256 251 253 256 257 262 261 270 277 280 307 314 4 60 351 51 82 120 116 135 277 283 258 241 273 235 237 255 274 264 295 288 275 303 309 283 267 243 279
259 256 254 254 255 255 253 253 252 248 248 250 250 252 247 259 267 281 287 17 67 330 45 52 124 123 129 84 330 244 238 240 232 232 255 264 269 288 290 299 296 280 272 273 305 281 281
257 255 251 250 251 250 249 248 247 242 242 243 245 246 251 250 259 274 271 168 178 123 105 12 104 127 137 101 157 249 239 223 228 235 250 267 268 283 283 270 279 267 244 253 284 276 267
255 254 251 247 246 245 244 243 242 237 233 234 236 246 249 244 246 261 241 182 183 44 131 6 54 129 150 290 255 239 237 229 243 235 233 263 271 296 276 264 258 262 249 268 272 286 275
249 251 249 244 241 240 239 237 236 231 222 219 233 243 243 234 224 248 224 186 178 27 340 339 150 176 259 140 213 204 260 240 255 246 244 276 272 270 277 265 262 252 287 275 276 285 286
247 245 248 241 237 235 235 232 231 226 214 212 229 237 238 213 209 241 186 185 178 260 288 261 249 266 215 215 193 175 197 267 239 247 243 253 253 276 271 251 249 292 264 278 283 283 276
245 242 245 237 235 232 229 227 225 219 208 211 223 229 213 196 222 233 196 185 184 227 262 249 246 241 224 240 222 214 217 243 267 259 253 267 260 250 247 287 277 274 274 284 268 275 281
243 240 237 231 229 227 224 222 220 215 202 208 219 222 221 213 225 211 231 196 221 237 253 245 244 243 235 240 240 228 228 277 277 268 262 281 256 252 267 286 290 278 276 272 271 287 283
236 238 228 226 226 224 222 219 219 212 203 209 215 218 223 226 229 221 204 201 199 246 245 239 241 250 247 253 261 269 275 284 282 284 283 287 258 267 262 282 291 283 265 271 283 288 282
236 231 224 223 223 222 219 217 218 208 203 209 220 222 220 209 216 223 209 216 188 222 238 235 241 240 253 264 274 276 288 292 286 287 288 282 270 268 257 277 275 272 267 267 203 196 237
229 222 223 223 218 216 215 214 215 206 201 210 219 216 217 218 212 224 216 206 186 227 233 233 242 245 257 270 280 292 289 294 290 285 281 280 272 276 271 274 273 262 263 260 250 205 214
224 223 222 220 216 212 212 210 212 200 199 208 220 225 215 212 208 219 218 214 198 223 236 238 240 251 262 283 297 300 298 289 290 288 286 285 280 285 271 280 275 268 246 243 217 239 309
224 226 224 217 212 208 207 207 207 201 201 206 218 218 209 212 210 212 216 219 220 223 231 237 243 252 275 345 338 320 312 304 299 293 291 284 278 277 274 287 277 290 308 307 305 304 307
225 227 221 214 210 204 204 203 203 200 201 210 220 217 217 216 212 213 216 219 220 224 226 228 249 263 78 295 289 285 283 282 285 284 282 273 279 280 284 287 281 286 313 314 318 319 325
223 218 213 208 202 203 202 201 202 200 201 209 219 225 216 209 219 212 216 217 217 218 226 239 246 255 265 281 279 273 272 270 283 285 284 288 286 287 296 294 297 318 326 331 327 316 332
204 204 200 200 201 198 201 201 196 196 199 208 221 226 218 213 217 213 217 219 219 223 230 234 239 251 256 268 270 270 271 272 284 285 287 289 291 293 299 300 305 318 325 332 316 322 332
193 192 195 192 196 196 193 191 193 195 197 206 221 226 220 218 215 221 221 219 224 223 227 232 241 253 257 261 261 265 271 272 280 289 299 303 308 305 308 308 306 338 340 324 331 330 330
189 187 186 184 183 186 187 190 192 194 197 204 216 221 224 222 222 226 227 231 227 233 234 233 251 252 258 260 266 273 274 281 281 289 299 297 303 307 314 317 335 340 332 334 332 330 330